Year,Month,Day,Hour,Minute,Value (Times are PST for temperature in C)
2013,01,21,00,00,2.60
2013,01,21,00,01,2.60
2013,01,21,00,02,2.60
2013,01,21,00,03,2.70
2013,01,21,00,04,2.70
2013,01,21,00,05,2.70
2013,01,21,00,06,2.70
2013,01,21,00,07,2.60
2013,01,21,00,08,2.60
2013,01,21,00,09,2.60
2013,01,21,00,10,2.60
2013,01,21,00,11,2.50
2013,01,21,00,12,2.50
2013,01,21,00,13,2.50
2013,01,21,00,14,2.50
2013,01,21,00,15,2.40
2013,01,21,00,16,2.30
2013,01,21,00,17,2.30
2013,01,21,00,18,2.30
2013,01,21,00,19,2.30
2013,01,21,00,20,2.30
2013,01,21,00,21,2.30
2013,01,21,00,22,2.30
2013,01,21,00,23,2.20
2013,01,21,00,24,2.20
2013,01,21,00,25,2.20
2013,01,21,00,26,2.20
2013,01,21,00,27,2.20
2013,01,21,00,28,2.20
2013,01,21,00,29,2.30
2013,01,21,00,30,2.30
2013,01,21,00,31,2.30
2013,01,21,00,32,2.30
2013,01,21,00,33,2.40
2013,01,21,00,34,2.40
2013,01,21,00,35,2.40
2013,01,21,00,36,2.40
2013,01,21,00,37,2.40
2013,01,21,00,38,2.40
2013,01,21,00,39,2.40
2013,01,21,00,40,2.40
2013,01,21,00,41,2.40
2013,01,21,00,42,2.30
2013,01,21,00,43,2.30
2013,01,21,00,44,2.30
2013,01,21,00,45,2.30
2013,01,21,00,46,2.30
2013,01,21,00,47,2.30
2013,01,21,00,48,2.20
2013,01,21,00,49,2.20
2013,01,21,00,50,2.20
2013,01,21,00,51,2.20
2013,01,21,00,52,2.20
2013,01,21,00,53,2.20
2013,01,21,00,54,2.20
2013,01,21,00,55,2.20
2013,01,21,00,56,2.20
2013,01,21,00,57,2.20
2013,01,21,00,58,2.20
2013,01,21,00,59,2.20
2013,01,21,01,00,2.20
2013,01,21,01,01,2.10
2013,01,21,01,02,2.10
2013,01,21,01,03,2.10
2013,01,21,01,04,2.00
2013,01,21,01,05,2.00
2013,01,21,01,06,2.00
2013,01,21,01,07,1.90
2013,01,21,01,08,1.90
2013,01,21,01,09,1.90
2013,01,21,01,10,1.90
2013,01,21,01,11,1.90
2013,01,21,01,12,1.90
2013,01,21,01,13,1.90
2013,01,21,01,14,1.90
2013,01,21,01,15,1.90
2013,01,21,01,16,1.90
2013,01,21,01,17,1.90
2013,01,21,01,18,1.90
2013,01,21,01,35,2.00
2013,01,21,01,36,1.90
2013,01,21,01,37,1.90
2013,01,21,01,38,1.90
2013,01,21,01,39,1.90
2013,01,21,01,40,1.90
2013,01,21,01,41,1.90
2013,01,21,01,42,1.90
2013,01,21,01,43,1.90
2013,01,21,01,44,1.80
2013,01,21,01,45,1.80
2013,01,21,01,46,1.80
2013,01,21,01,47,1.80
2013,01,21,01,48,1.80
2013,01,21,01,49,1.80
2013,01,21,01,50,1.80
2013,01,21,01,51,1.80
2013,01,21,01,52,1.80
2013,01,21,01,53,1.80
2013,01,21,01,54,1.80
2013,01,21,01,55,1.90
2013,01,21,01,56,1.90
2013,01,21,01,57,1.90
2013,01,21,01,58,1.90
2013,01,21,01,59,1.90
2013,01,21,02,00,2.00
2013,01,21,02,01,2.00
2013,01,21,02,02,2.10
2013,01,21,02,03,2.00
2013,01,21,02,04,2.00
2013,01,21,02,05,2.00
2013,01,21,02,06,2.00
2013,01,21,02,07,1.90
2013,01,21,02,08,1.90
2013,01,21,02,09,1.90
2013,01,21,02,10,1.90
2013,01,21,02,11,1.90
2013,01,21,02,12,1.90
2013,01,21,02,13,1.90
2013,01,21,02,14,1.90
2013,01,21,02,15,2.00
2013,01,21,02,16,2.00
2013,01,21,02,17,2.00
2013,01,21,02,18,1.90
2013,01,21,02,19,1.90
2013,01,21,02,20,1.90
2013,01,21,02,21,1.90
2013,01,21,02,22,1.90
2013,01,21,02,23,1.80
2013,01,21,02,24,1.80
2013,01,21,02,25,1.80
2013,01,21,02,26,1.80
2013,01,21,02,27,1.80
2013,01,21,02,28,1.80
2013,01,21,02,29,1.80
2013,01,21,02,30,1.80
2013,01,21,02,31,1.70
2013,01,21,02,32,1.70
2013,01,21,02,33,1.70
2013,01,21,02,34,1.70
2013,01,21,02,35,1.60
2013,01,21,02,36,1.60
2013,01,21,02,37,1.60
2013,01,21,02,38,1.60
2013,01,21,02,39,1.50
2013,01,21,02,40,1.50
2013,01,21,02,41,1.50
2013,01,21,02,42,1.50
2013,01,21,02,43,1.40
2013,01,21,02,44,1.40
2013,01,21,02,45,1.40
2013,01,21,02,46,1.40
2013,01,21,02,47,1.40
2013,01,21,02,48,1.40
2013,01,21,02,49,1.40
2013,01,21,02,50,1.30
2013,01,21,02,51,1.40
2013,01,21,02,52,1.40
2013,01,21,02,53,1.40
2013,01,21,02,54,1.40
2013,01,21,02,55,1.40
2013,01,21,02,56,1.40
2013,01,21,02,57,1.40
2013,01,21,02,58,1.40
2013,01,21,02,59,1.40
2013,01,21,03,00,1.40
2013,01,21,03,01,1.40
2013,01,21,03,02,1.40
2013,01,21,03,03,1.40
2013,01,21,03,04,1.40
2013,01,21,03,05,1.40
2013,01,21,03,06,1.50
2013,01,21,03,07,1.50
2013,01,21,03,08,1.50
2013,01,21,03,09,1.50
2013,01,21,03,10,1.50
2013,01,21,03,11,1.50
2013,01,21,03,12,1.50
2013,01,21,03,13,1.40
2013,01,21,03,14,1.40
2013,01,21,03,15,1.40
2013,01,21,03,16,1.40
2013,01,21,03,17,1.40
2013,01,21,03,18,1.30
2013,01,21,03,19,1.30
2013,01,21,03,20,1.30
2013,01,21,03,21,1.30
2013,01,21,03,22,1.30
2013,01,21,03,23,1.30
2013,01,21,03,24,1.20
2013,01,21,03,25,1.20
2013,01,21,03,26,1.20
2013,01,21,03,27,1.20
2013,01,21,03,28,1.20
2013,01,21,03,29,1.20
2013,01,21,03,30,1.20
2013,01,21,03,31,1.20
2013,01,21,03,32,1.20
2013,01,21,03,33,1.20
2013,01,21,03,34,1.20
2013,01,21,03,35,1.20
2013,01,21,03,36,1.20
2013,01,21,03,37,1.20
2013,01,21,03,38,1.20
2013,01,21,03,39,1.20
2013,01,21,03,40,1.20
2013,01,21,03,41,1.10
2013,01,21,03,42,1.10
2013,01,21,03,43,1.10
2013,01,21,03,44,1.10
2013,01,21,03,45,1.10
2013,01,21,03,46,1.10
2013,01,21,03,47,1.10
2013,01,21,03,48,1.10
2013,01,21,03,49,1.00
2013,01,21,03,50,0.90
2013,01,21,03,51,0.80
2013,01,21,03,52,0.70
2013,01,21,03,53,0.70
2013,01,21,03,54,0.70
2013,01,21,03,55,0.70
2013,01,21,03,56,0.70
2013,01,21,03,57,0.80
2013,01,21,03,58,0.80
2013,01,21,03,59,0.80
2013,01,21,04,00,0.80
2013,01,21,04,01,0.80
2013,01,21,04,02,0.70
2013,01,21,04,03,0.70
2013,01,21,04,04,0.60
2013,01,21,04,05,0.60
2013,01,21,04,06,0.70
2013,01,21,04,07,0.70
2013,01,21,04,08,0.70
2013,01,21,04,09,0.70
2013,01,21,04,10,0.70
2013,01,21,04,11,0.80
2013,01,21,04,12,0.80
2013,01,21,04,13,0.80
2013,01,21,04,14,0.70
2013,01,21,04,15,0.80
2013,01,21,04,16,0.80
2013,01,21,04,17,0.90
2013,01,21,04,18,1.00
2013,01,21,04,19,1.00
2013,01,21,04,20,1.00
2013,01,21,04,21,1.00
2013,01,21,04,22,0.90
2013,01,21,04,23,0.90
2013,01,21,04,24,0.90
2013,01,21,04,25,0.90
2013,01,21,04,26,0.90
2013,01,21,04,27,0.90
2013,01,21,04,28,0.90
2013,01,21,04,29,0.80
2013,01,21,04,30,0.80
2013,01,21,04,31,0.80
2013,01,21,04,32,0.80
2013,01,21,04,33,0.90
2013,01,21,04,34,0.90
2013,01,21,04,35,1.00
2013,01,21,04,36,1.10
2013,01,21,04,37,1.20
2013,01,21,04,38,1.20
2013,01,21,04,39,1.30
2013,01,21,04,40,1.40
2013,01,21,04,41,1.50
2013,01,21,04,42,1.50
2013,01,21,04,43,1.60
2013,01,21,04,44,1.60
2013,01,21,04,45,1.60
2013,01,21,04,46,1.80
2013,01,21,04,47,1.90
2013,01,21,04,48,2.00
2013,01,21,04,49,2.10
2013,01,21,04,50,2.20
2013,01,21,04,51,2.30
2013,01,21,04,52,2.40
2013,01,21,04,53,2.50
2013,01,21,04,54,2.50
2013,01,21,04,55,2.60
2013,01,21,04,56,2.70
2013,01,21,04,57,2.70
2013,01,21,04,58,2.70
2013,01,21,04,59,2.70
2013,01,21,05,00,2.70
2013,01,21,05,01,2.70
2013,01,21,05,02,2.70
2013,01,21,05,03,2.60
2013,01,21,05,04,2.60
2013,01,21,05,05,2.60
2013,01,21,05,06,2.60
2013,01,21,05,07,2.60
2013,01,21,05,08,2.60
2013,01,21,05,09,2.50
2013,01,21,05,10,2.50
2013,01,21,05,11,2.40
2013,01,21,05,12,2.40
2013,01,21,05,13,2.40
2013,01,21,05,14,2.40
2013,01,21,05,15,2.30
2013,01,21,05,16,2.30
2013,01,21,05,17,2.30
2013,01,21,05,18,2.30
2013,01,21,05,19,2.30
2013,01,21,05,20,2.20
2013,01,21,05,21,2.20
2013,01,21,05,22,2.20
2013,01,21,05,23,2.20
2013,01,21,05,24,2.30
2013,01,21,05,25,2.30
2013,01,21,05,26,2.30
2013,01,21,05,27,2.30
2013,01,21,05,28,2.30
2013,01,21,05,29,2.30
2013,01,21,05,30,2.30
2013,01,21,05,31,2.30
2013,01,21,05,32,2.30
2013,01,21,05,33,2.30
2013,01,21,05,34,2.30
2013,01,21,05,35,2.30
2013,01,21,05,36,2.20
2013,01,21,05,37,2.20
2013,01,21,05,38,2.20
2013,01,21,05,39,2.20
2013,01,21,05,40,2.20
2013,01,21,05,41,2.10
2013,01,21,05,42,2.10
2013,01,21,05,43,2.10
2013,01,21,05,44,2.00
2013,01,21,05,45,2.00
2013,01,21,05,46,2.00
2013,01,21,05,47,2.00
2013,01,21,05,48,2.00
2013,01,21,05,49,2.00
2013,01,21,05,50,2.10
2013,01,21,05,51,2.10
2013,01,21,05,52,2.10
2013,01,21,05,53,2.20
2013,01,21,05,54,2.20
2013,01,21,05,55,2.20
2013,01,21,05,56,2.20
2013,01,21,05,57,2.20
2013,01,21,05,58,2.20
2013,01,21,05,59,2.20
2013,01,21,06,00,2.20
2013,01,21,06,01,2.20
2013,01,21,06,02,2.20
2013,01,21,06,03,2.20
2013,01,21,06,04,2.20
2013,01,21,06,05,2.10
2013,01,21,06,06,2.10
2013,01,21,06,07,2.00
2013,01,21,06,08,2.00
2013,01,21,06,09,1.90
2013,01,21,06,10,1.90
2013,01,21,06,11,1.90
2013,01,21,06,12,1.90
2013,01,21,06,13,1.90
2013,01,21,06,14,1.90
2013,01,21,06,15,1.90
2013,01,21,06,16,1.90
2013,01,21,06,17,2.00
2013,01,21,06,18,2.00
2013,01,21,06,19,2.00
2013,01,21,06,20,2.00
2013,01,21,06,21,2.00
2013,01,21,06,22,2.00
2013,01,21,06,23,2.00
2013,01,21,06,24,2.00
2013,01,21,06,25,2.10
2013,01,21,06,26,2.10
2013,01,21,06,27,2.10
2013,01,21,06,28,2.10
2013,01,21,06,29,2.10
2013,01,21,06,30,2.10
2013,01,21,06,31,2.10
2013,01,21,06,32,2.10
2013,01,21,06,33,2.10
2013,01,21,06,34,2.10
2013,01,21,06,35,2.10
2013,01,21,06,36,2.10
2013,01,21,06,37,2.10
2013,01,21,06,38,2.10
2013,01,21,06,39,2.10
2013,01,21,06,40,2.10
2013,01,21,06,41,2.10
2013,01,21,06,42,2.20
2013,01,21,06,43,2.20
2013,01,21,06,44,2.20
2013,01,21,06,45,2.20
2013,01,21,06,46,2.20
2013,01,21,06,47,2.20
2013,01,21,06,48,2.10
2013,01,21,06,49,2.10
2013,01,21,06,50,2.10
2013,01,21,06,51,2.10
2013,01,21,06,52,2.10
2013,01,21,06,53,2.00
2013,01,21,06,54,2.00
2013,01,21,06,55,2.00
2013,01,21,06,56,2.00
2013,01,21,06,57,1.90
2013,01,21,06,58,1.90
2013,01,21,06,59,1.90
2013,01,21,07,00,1.90
2013,01,21,07,01,1.90
2013,01,21,07,02,2.00
2013,01,21,07,03,2.00
2013,01,21,07,04,2.00
2013,01,21,07,05,2.00
2013,01,21,07,06,2.00
2013,01,21,07,07,1.90
2013,01,21,07,08,1.90
2013,01,21,07,09,1.90
2013,01,21,07,10,1.80
2013,01,21,07,11,1.80
2013,01,21,07,12,1.80
2013,01,21,07,13,1.80
2013,01,21,07,14,1.70
2013,01,21,07,15,1.70
2013,01,21,07,16,1.70
2013,01,21,07,17,1.70
2013,01,21,07,18,1.60
2013,01,21,07,19,1.60
2013,01,21,07,20,1.60
2013,01,21,07,21,1.60
2013,01,21,07,22,1.60
2013,01,21,07,23,1.60
2013,01,21,07,24,1.60
2013,01,21,07,25,1.60
2013,01,21,07,26,1.60
2013,01,21,07,27,1.70
2013,01,21,07,28,1.70
2013,01,21,07,29,1.80
2013,01,21,07,30,1.80
2013,01,21,07,31,1.80
2013,01,21,07,32,1.80
2013,01,21,07,33,1.80
2013,01,21,07,34,1.80
2013,01,21,07,35,1.80
2013,01,21,07,36,1.80
2013,01,21,07,37,1.80
2013,01,21,07,38,1.80
2013,01,21,07,39,1.80
2013,01,21,07,40,1.80
2013,01,21,07,41,1.80
2013,01,21,07,42,1.80
2013,01,21,07,43,1.80
2013,01,21,07,44,1.90
2013,01,21,07,45,1.90
2013,01,21,07,46,1.90
2013,01,21,07,47,1.90
2013,01,21,07,48,1.90
2013,01,21,07,49,1.90
2013,01,21,07,50,1.90
2013,01,21,07,51,1.90
2013,01,21,07,52,1.90
2013,01,21,07,53,1.90
2013,01,21,07,54,1.90
2013,01,21,07,55,1.90
2013,01,21,07,56,1.90
2013,01,21,07,57,1.90
2013,01,21,07,58,1.90
2013,01,21,07,59,1.90
2013,01,21,08,00,1.90
2013,01,21,08,01,1.90
2013,01,21,08,02,1.90
2013,01,21,08,03,1.90
2013,01,21,08,04,1.90
2013,01,21,08,05,1.90
2013,01,21,08,06,1.90
2013,01,21,08,07,1.90
2013,01,21,08,08,1.80
2013,01,21,08,09,1.90
2013,01,21,08,10,1.90
2013,01,21,08,11,1.90
2013,01,21,08,12,1.90
2013,01,21,08,13,1.90
2013,01,21,08,14,1.90
2013,01,21,08,15,1.90
2013,01,21,08,16,1.90
2013,01,21,08,17,1.90
2013,01,21,08,18,1.90
2013,01,21,08,19,1.80
2013,01,21,08,20,1.80
2013,01,21,08,21,1.80
2013,01,21,08,22,1.80
2013,01,21,08,23,1.80
2013,01,21,08,24,1.80
2013,01,21,08,25,1.80
2013,01,21,08,26,1.80
2013,01,21,08,27,1.70
2013,01,21,08,28,1.70
2013,01,21,08,29,1.70
2013,01,21,08,30,1.70
2013,01,21,08,31,1.60
2013,01,21,08,32,1.60
2013,01,21,08,33,1.60
2013,01,21,08,34,1.60
2013,01,21,08,35,1.50
2013,01,21,08,36,1.50
2013,01,21,08,37,1.50
2013,01,21,08,38,1.50
2013,01,21,08,39,1.40
2013,01,21,08,40,1.30
2013,01,21,08,41,1.30
2013,01,21,08,42,1.30
2013,01,21,08,43,1.30
2013,01,21,08,44,1.30
2013,01,21,08,45,1.40
2013,01,21,08,46,1.40
2013,01,21,08,47,1.40
2013,01,21,08,48,1.40
2013,01,21,08,49,1.40
2013,01,21,08,50,1.40
2013,01,21,08,51,1.50
2013,01,21,08,52,1.50
2013,01,21,08,53,1.50
2013,01,21,08,54,1.50
2013,01,21,08,55,1.60
2013,01,21,08,56,1.60
2013,01,21,08,57,1.60
2013,01,21,08,58,1.60
2013,01,21,08,59,1.60
2013,01,21,09,00,1.60
2013,01,21,09,01,1.60
2013,01,21,09,02,1.70
2013,01,21,09,03,1.70
2013,01,21,09,04,1.70
2013,01,21,09,05,1.70
2013,01,21,09,06,1.70
2013,01,21,09,07,1.80
2013,01,21,09,08,1.70
2013,01,21,09,09,1.80
2013,01,21,09,10,1.80
2013,01,21,09,11,1.70
2013,01,21,09,12,1.70
2013,01,21,09,13,1.70
2013,01,21,09,14,1.80
2013,01,21,09,15,1.80
2013,01,21,09,16,1.90
2013,01,21,09,17,2.00
2013,01,21,09,18,2.00
2013,01,21,09,19,2.00
2013,01,21,09,20,2.10
2013,01,21,09,21,2.10
2013,01,21,09,22,2.20
2013,01,21,09,23,2.20
2013,01,21,09,24,2.30
2013,01,21,09,25,2.30
2013,01,21,09,26,2.40
2013,01,21,09,27,2.50
2013,01,21,09,28,2.60
2013,01,21,09,29,2.60
2013,01,21,09,30,2.70
2013,01,21,09,31,2.80
2013,01,21,09,32,2.80
2013,01,21,09,33,2.90
2013,01,21,09,34,2.90
2013,01,21,09,35,3.00
2013,01,21,09,36,3.00
2013,01,21,09,37,3.00
2013,01,21,09,38,3.00
2013,01,21,09,39,3.00
2013,01,21,09,40,3.10
2013,01,21,09,41,3.10
2013,01,21,09,42,3.20
2013,01,21,09,43,3.30
2013,01,21,09,44,3.30
2013,01,21,09,45,3.30
2013,01,21,09,46,3.40
2013,01,21,09,47,3.40
2013,01,21,09,48,3.40
2013,01,21,09,49,3.50
2013,01,21,09,50,3.50
2013,01,21,09,51,3.60
2013,01,21,09,52,3.70
2013,01,21,09,53,3.80
2013,01,21,09,54,3.80
2013,01,21,09,55,3.80
2013,01,21,09,56,3.80
2013,01,21,09,57,3.80
2013,01,21,09,58,3.80
2013,01,21,09,59,3.90
2013,01,21,10,00,3.90
2013,01,21,10,01,3.90
2013,01,21,10,02,3.80
2013,01,21,10,03,3.80
2013,01,21,10,04,3.80
2013,01,21,10,05,3.80
2013,01,21,10,06,3.80
2013,01,21,10,07,3.80
2013,01,21,10,08,3.80
2013,01,21,10,09,3.90
2013,01,21,10,10,3.90
2013,01,21,10,11,4.00
2013,01,21,10,12,4.10
2013,01,21,10,13,4.10
2013,01,21,10,14,4.10
2013,01,21,10,15,4.10
2013,01,21,10,16,4.10
2013,01,21,10,17,4.20
2013,01,21,10,18,4.30
2013,01,21,10,19,4.30
2013,01,21,10,20,4.40
2013,01,21,10,21,4.40
2013,01,21,10,22,4.50
2013,01,21,10,23,4.50
2013,01,21,10,24,4.60
2013,01,21,10,25,4.70
2013,01,21,10,26,4.70
2013,01,21,10,27,4.80
2013,01,21,10,28,4.80
2013,01,21,10,29,4.80
2013,01,21,10,30,4.90
2013,01,21,10,31,4.90
2013,01,21,10,32,4.90
2013,01,21,10,33,5.00
2013,01,21,10,34,5.00
2013,01,21,10,35,5.00
2013,01,21,10,36,5.10
2013,01,21,10,37,5.10
2013,01,21,10,38,5.10
2013,01,21,10,39,5.10
2013,01,21,10,40,5.10
2013,01,21,10,41,5.20
2013,01,21,10,42,5.20
2013,01,21,10,43,5.20
2013,01,21,10,44,5.20
2013,01,21,10,45,5.20
2013,01,21,10,46,5.20
2013,01,21,10,47,5.20
2013,01,21,10,48,5.20
2013,01,21,10,49,5.30
2013,01,21,10,50,5.30
2013,01,21,10,51,5.30
2013,01,21,10,52,5.30
2013,01,21,10,53,5.30
2013,01,21,10,54,5.20
2013,01,21,10,55,5.20
2013,01,21,10,56,5.20
2013,01,21,10,57,5.30
2013,01,21,10,58,5.30
2013,01,21,10,59,5.30
2013,01,21,11,00,5.30
2013,01,21,11,01,5.40
2013,01,21,11,02,5.40
2013,01,21,11,03,5.50
2013,01,21,11,04,5.60
2013,01,21,11,05,5.60
2013,01,21,11,06,5.70
2013,01,21,11,07,5.70
2013,01,21,11,08,5.70
2013,01,21,11,09,5.70
2013,01,21,11,10,5.70
2013,01,21,11,11,5.70
2013,01,21,11,12,5.70
2013,01,21,11,13,5.80
2013,01,21,11,14,5.80
2013,01,21,11,15,5.90
2013,01,21,11,16,5.90
2013,01,21,11,17,6.00
2013,01,21,11,18,6.20
2013,01,21,11,19,6.30
2013,01,21,11,20,6.40
2013,01,21,11,21,6.40
2013,01,21,11,22,6.50
2013,01,21,11,23,6.60
2013,01,21,11,24,6.70
2013,01,21,11,25,6.70
2013,01,21,11,26,6.70
2013,01,21,11,27,6.70
2013,01,21,11,28,6.70
2013,01,21,11,29,6.70
2013,01,21,11,30,6.80
2013,01,21,11,31,6.90
2013,01,21,11,32,7.00
2013,01,21,11,33,7.20
2013,01,21,11,34,7.30
2013,01,21,11,35,7.40
2013,01,21,11,36,7.50
2013,01,21,11,37,7.60
2013,01,21,11,38,7.70
2013,01,21,11,39,7.80
2013,01,21,11,40,7.80
2013,01,21,11,41,7.80
2013,01,21,11,42,7.70
2013,01,21,11,43,7.70
2013,01,21,11,44,7.60
2013,01,21,11,45,7.60
2013,01,21,11,46,7.50
2013,01,21,11,47,7.50
2013,01,21,11,48,7.40
2013,01,21,11,49,7.40
2013,01,21,11,50,7.40
2013,01,21,11,51,7.40
2013,01,21,11,52,7.40
2013,01,21,11,53,7.40
2013,01,21,11,54,7.30
2013,01,21,11,55,7.30
2013,01,21,11,56,7.30
2013,01,21,11,57,7.30
2013,01,21,11,58,7.30
2013,01,21,11,59,7.40
2013,01,21,12,00,7.40
2013,01,21,12,01,7.40
2013,01,21,12,02,7.40
2013,01,21,12,03,7.40
2013,01,21,12,04,7.30
2013,01,21,12,05,7.30
2013,01,21,12,06,7.40
2013,01,21,12,07,7.40
2013,01,21,12,08,7.30
2013,01,21,12,09,7.30
2013,01,21,12,10,7.30
2013,01,21,12,11,7.30
2013,01,21,12,12,7.30
2013,01,21,12,13,7.30
2013,01,21,12,14,7.30
2013,01,21,12,15,7.30
2013,01,21,12,16,7.40
2013,01,21,12,17,7.40
2013,01,21,12,18,7.50
2013,01,21,12,19,7.50
2013,01,21,12,20,7.50
2013,01,21,12,21,7.60
2013,01,21,12,22,7.70
2013,01,21,12,23,7.70
2013,01,21,12,24,7.80
2013,01,21,12,25,7.80
2013,01,21,12,26,7.90
2013,01,21,12,27,8.00
2013,01,21,12,28,8.20
2013,01,21,12,29,8.30
2013,01,21,12,30,8.40
2013,01,21,12,31,8.50
2013,01,21,12,32,8.60
2013,01,21,12,33,8.60
2013,01,21,12,34,8.70
2013,01,21,12,35,8.70
2013,01,21,12,36,8.80
2013,01,21,12,37,8.80
2013,01,21,12,38,8.90
2013,01,21,12,39,8.90
2013,01,21,12,40,8.90
2013,01,21,12,41,8.90
2013,01,21,12,42,8.90
2013,01,21,12,43,9.00
2013,01,21,12,44,9.00
2013,01,21,12,45,9.10
2013,01,21,12,46,9.20
2013,01,21,12,47,9.20
2013,01,21,12,48,9.20
2013,01,21,12,49,9.30
2013,01,21,12,50,9.30
2013,01,21,12,51,9.30
2013,01,21,12,52,9.30
2013,01,21,12,53,9.40
2013,01,21,12,54,9.40
2013,01,21,12,55,9.50
2013,01,21,12,56,9.60
2013,01,21,12,57,9.70
2013,01,21,12,58,9.70
2013,01,21,12,59,9.70
2013,01,21,13,00,9.70
2013,01,21,13,01,9.70
2013,01,21,13,02,9.60
2013,01,21,13,03,9.60
2013,01,21,13,04,9.50
2013,01,21,13,05,9.50
2013,01,21,13,06,9.40
2013,01,21,13,07,9.30
2013,01,21,13,08,9.30
2013,01,21,13,09,9.20
2013,01,21,13,10,9.20
2013,01,21,13,11,9.20
2013,01,21,13,12,9.10
2013,01,21,13,13,9.10
2013,01,21,13,14,9.10
2013,01,21,13,15,9.10
2013,01,21,13,16,9.20
2013,01,21,13,17,9.30
2013,01,21,13,18,9.40
2013,01,21,13,19,9.40
2013,01,21,13,20,9.50
2013,01,21,13,21,9.50
2013,01,21,13,22,9.60
2013,01,21,13,23,9.60
2013,01,21,13,24,9.60
2013,01,21,13,25,9.60
2013,01,21,13,26,9.60
2013,01,21,13,27,9.60
2013,01,21,13,28,9.60
2013,01,21,13,29,9.50
2013,01,21,13,30,9.60
2013,01,21,13,31,9.60
2013,01,21,13,32,9.60
2013,01,21,13,33,9.60
2013,01,21,13,34,9.60
2013,01,21,13,35,9.60
2013,01,21,13,36,9.60
2013,01,21,13,37,9.60
2013,01,21,13,38,9.60
2013,01,21,13,39,9.60
2013,01,21,13,40,9.60
2013,01,21,13,41,9.70
2013,01,21,13,42,9.70
2013,01,21,13,43,9.70
2013,01,21,13,44,9.70
2013,01,21,13,45,9.60
2013,01,21,13,46,9.50
2013,01,21,13,47,9.40
2013,01,21,13,48,9.30
2013,01,21,13,49,9.30
2013,01,21,13,50,9.20
2013,01,21,13,51,9.10
2013,01,21,13,52,9.00
2013,01,21,13,53,9.00
2013,01,21,13,54,8.90
2013,01,21,13,55,8.80
2013,01,21,13,56,8.80
2013,01,21,13,57,8.80
2013,01,21,13,58,8.80
2013,01,21,13,59,8.90
2013,01,21,14,00,8.80
2013,01,21,14,01,8.90
2013,01,21,14,02,8.90
2013,01,21,14,03,8.90
2013,01,21,14,04,8.90
2013,01,21,14,05,8.90
2013,01,21,14,06,9.00
2013,01,21,14,07,9.00
2013,01,21,14,08,9.10
2013,01,21,14,09,9.10
2013,01,21,14,10,9.20
2013,01,21,14,11,9.20
2013,01,21,14,12,9.20
2013,01,21,14,13,9.20
2013,01,21,14,14,9.30
2013,01,21,14,15,9.30
2013,01,21,14,16,9.30
2013,01,21,14,17,9.30
2013,01,21,14,18,9.30
2013,01,21,14,19,9.30
2013,01,21,14,20,9.30
2013,01,21,14,21,9.30
2013,01,21,14,22,9.30
2013,01,21,14,23,9.30
2013,01,21,14,24,9.40
2013,01,21,14,25,9.40
2013,01,21,14,26,9.40
2013,01,21,14,27,9.40
2013,01,21,14,28,9.40
2013,01,21,14,29,9.50
2013,01,21,14,30,9.50
2013,01,21,14,31,9.50
2013,01,21,14,32,9.60
2013,01,21,14,33,9.50
2013,01,21,14,34,9.50
2013,01,21,14,35,9.50
2013,01,21,14,36,9.40
2013,01,21,14,37,9.40
2013,01,21,14,38,9.40
2013,01,21,14,39,9.40
2013,01,21,14,40,9.30
2013,01,21,14,41,9.30
2013,01,21,14,42,9.40
2013,01,21,14,43,9.30
2013,01,21,14,44,9.30
2013,01,21,14,45,9.30
2013,01,21,14,46,9.20
2013,01,21,14,47,9.20
2013,01,21,14,48,9.20
2013,01,21,14,49,9.20
2013,01,21,14,50,9.10
2013,01,21,14,51,9.10
2013,01,21,14,52,9.10
2013,01,21,14,53,9.10
2013,01,21,14,54,9.10
2013,01,21,14,55,9.10
2013,01,21,14,56,9.10
2013,01,21,14,57,9.10
2013,01,21,14,58,9.10
2013,01,21,14,59,9.10
2013,01,21,15,00,9.00
2013,01,21,15,01,9.00
2013,01,21,15,02,9.10
2013,01,21,15,03,9.10
2013,01,21,15,04,9.10
2013,01,21,15,05,9.10
2013,01,21,15,06,9.10
2013,01,21,15,07,9.10
2013,01,21,15,08,9.10
2013,01,21,15,09,9.10
2013,01,21,15,10,9.10
2013,01,21,15,11,9.00
2013,01,21,15,12,9.00
2013,01,21,15,13,9.10
2013,01,21,15,14,9.10
2013,01,21,15,15,9.10
2013,01,21,15,16,9.10
2013,01,21,15,17,9.20
2013,01,21,15,18,9.30
2013,01,21,15,19,9.30
2013,01,21,15,20,9.30
2013,01,21,15,21,9.30
2013,01,21,15,22,9.30
2013,01,21,15,23,9.40
2013,01,21,15,24,9.40
2013,01,21,15,25,9.40
2013,01,21,15,26,9.50
2013,01,21,15,27,9.50
2013,01,21,15,28,9.40
2013,01,21,15,29,9.40
2013,01,21,15,30,9.40
2013,01,21,15,31,9.40
2013,01,21,15,32,9.40
2013,01,21,15,33,9.40
2013,01,21,15,34,9.40
2013,01,21,15,35,9.40
2013,01,21,15,36,9.40
2013,01,21,15,37,9.30
2013,01,21,15,38,9.30
2013,01,21,15,39,9.30
2013,01,21,15,40,9.30
2013,01,21,15,41,9.20
2013,01,21,15,42,9.20
2013,01,21,15,43,9.10
2013,01,21,15,44,9.10
2013,01,21,15,45,9.10
2013,01,21,15,46,9.00
2013,01,21,15,47,9.00
2013,01,21,15,48,9.00
2013,01,21,15,49,8.90
2013,01,21,15,50,8.90
2013,01,21,15,51,8.80
2013,01,21,15,52,8.80
2013,01,21,15,53,8.80
2013,01,21,15,54,8.70
2013,01,21,15,55,8.70
2013,01,21,15,56,8.60
2013,01,21,15,57,8.60
2013,01,21,15,58,8.50
2013,01,21,15,59,8.40
2013,01,21,16,00,8.40
2013,01,21,16,01,8.40
2013,01,21,16,02,8.20
2013,01,21,16,03,8.10
2013,01,21,16,04,8.00
2013,01,21,16,05,7.90
2013,01,21,16,06,7.90
2013,01,21,16,07,7.80
2013,01,21,16,08,7.70
2013,01,21,16,09,7.70
2013,01,21,16,10,7.70
2013,01,21,16,11,7.60
2013,01,21,16,12,7.60
2013,01,21,16,13,7.50
2013,01,21,16,14,7.50
2013,01,21,16,15,7.40
2013,01,21,16,16,7.40
2013,01,21,16,17,7.30
2013,01,21,16,18,7.30
2013,01,21,16,19,7.30
2013,01,21,16,20,7.20
2013,01,21,16,21,7.20
2013,01,21,16,22,7.20
2013,01,21,16,23,7.20
2013,01,21,16,24,7.10
2013,01,21,16,25,7.10
2013,01,21,16,26,7.10
2013,01,21,16,27,7.10
2013,01,21,16,28,7.10
2013,01,21,16,29,7.10
2013,01,21,16,30,7.10
2013,01,21,16,31,7.00
2013,01,21,16,32,7.00
2013,01,21,16,33,6.90
2013,01,21,16,34,6.90
2013,01,21,16,35,6.90
2013,01,21,16,36,6.80
2013,01,21,16,37,6.80
2013,01,21,16,38,6.80
2013,01,21,16,39,6.80
2013,01,21,16,40,6.80
2013,01,21,16,41,6.70
2013,01,21,16,42,6.60
2013,01,21,16,43,6.60
2013,01,21,16,44,6.60
2013,01,21,16,45,6.60
2013,01,21,16,46,6.60
2013,01,21,16,47,6.50
2013,01,21,16,48,6.50
2013,01,21,16,49,6.50
2013,01,21,16,50,6.40
2013,01,21,16,51,6.40
2013,01,21,16,52,6.40
2013,01,21,16,53,6.40
2013,01,21,16,54,6.40
2013,01,21,16,55,6.40
2013,01,21,16,56,6.40
2013,01,21,16,57,6.40
2013,01,21,16,58,6.40
2013,01,21,16,59,6.30
2013,01,21,17,00,6.30
2013,01,21,17,01,6.30
2013,01,21,17,02,6.30
2013,01,21,17,03,6.30
2013,01,21,17,04,6.30
2013,01,21,17,05,6.30
2013,01,21,17,06,6.30
2013,01,21,17,07,6.30
2013,01,21,17,08,6.30
2013,01,21,17,09,6.20
2013,01,21,17,10,6.20
2013,01,21,17,11,6.20
2013,01,21,17,12,6.20
2013,01,21,17,13,6.10
2013,01,21,17,14,6.10
2013,01,21,17,15,6.10
2013,01,21,17,16,6.00
2013,01,21,17,17,6.00
2013,01,21,17,18,6.00
2013,01,21,17,19,6.10
2013,01,21,17,20,6.10
2013,01,21,17,21,6.10
2013,01,21,17,22,6.10
2013,01,21,17,23,6.10
2013,01,21,17,24,6.10
2013,01,21,17,25,6.10
2013,01,21,17,26,6.10
2013,01,21,17,27,6.10
2013,01,21,17,28,6.10
2013,01,21,17,29,6.10
2013,01,21,17,30,6.10
2013,01,21,17,31,6.10
2013,01,21,17,32,6.10
2013,01,21,17,33,6.10
2013,01,21,17,34,6.10
2013,01,21,17,35,6.10
2013,01,21,17,36,6.00
2013,01,21,17,37,6.00
2013,01,21,17,38,6.00
2013,01,21,17,39,5.90
2013,01,21,17,40,5.90
2013,01,21,17,41,5.90
2013,01,21,17,42,5.90
2013,01,21,17,43,5.80
2013,01,21,17,44,5.80
2013,01,21,17,45,5.80
2013,01,21,17,46,5.80
2013,01,21,17,47,5.80
2013,01,21,17,48,5.80
2013,01,21,17,49,5.80
2013,01,21,17,50,5.70
2013,01,21,17,51,5.70
2013,01,21,17,52,5.70
2013,01,21,17,53,5.60
2013,01,21,17,54,5.60
2013,01,21,17,55,5.50
2013,01,21,17,56,5.50
2013,01,21,17,57,5.50
2013,01,21,17,58,5.50
2013,01,21,17,59,5.50
2013,01,21,18,00,5.50
2013,01,21,18,01,5.50
2013,01,21,18,02,5.50
2013,01,21,18,03,5.50
2013,01,21,18,04,5.50
2013,01,21,18,05,5.50
2013,01,21,18,06,5.50
2013,01,21,18,07,5.40
2013,01,21,18,08,5.40
2013,01,21,18,09,5.40
2013,01,21,18,10,5.40
2013,01,21,18,11,5.50
2013,01,21,18,12,5.50
2013,01,21,18,13,5.50
2013,01,21,18,14,5.50
2013,01,21,18,15,5.50
2013,01,21,18,16,5.60
2013,01,21,18,17,5.60
2013,01,21,18,18,5.60
2013,01,21,18,19,5.60
2013,01,21,18,20,5.60
2013,01,21,18,21,5.60
2013,01,21,18,22,5.60